map of CKS home
Great Circle Mapper logo
CKS - Airport
Location
City:  Carajás, Pará, Brazil
Near (Alt.):Parauapebas
ICAO / IATA:SBCJ / CKS

Details
Type:Airport (Aerodrome, Airfield)
Latitude:6°07'04"S (-6.117805)
Longitude:50°00'12"W (-50.003471)
Datum:WGS 1984
Elevation:2038 ft (621 m)
Runways:1
Longest:6562 × 148 ft (2000 × 45 m), paved

Time
Time Zone:UTC-3
Local Time:

Weather
METAR:SBCJ 221400Z 08004KT 9999 BKN009 24/20 Q1018
TAF:SBCJ 220400Z 2206/2218 00000KT 8000 BKN010 TN21/2208Z TX29/2217Z
BECMG 2209/2211 02005KT SCT020
BECMG 2213/2215 06005KT SCT025
RMK PEN

Related Locations
Nearby:
Farthest:MXI: 12187 mi / 19613 km
Mati [Imelda Romualdez Marcos], Mindanao Island, PH

Find:

   beyond  
but within

Other Information
Maps:
NOTAMs:
Links:
Sources:

  
flag of Brazil
flag of Pará
  

Sectional Chart

Flight Planning
at skyvector.com

Satellite Image

Google Maps Satellite View

 

Copyright © 2004-2014 Karl L. Swartz. All rights reserved.
The Great Circle Mapper name and logo are trademarks of the Great Circle Mapper.
All other trademarks mentioned herein belong to their respective owners.
Please see credits for attibutions and further copyright information.

  Follow gcmap on Facebook Follow gcmap on Twitter

hCard Microformat

Geo Microformat